Regional Weather Roundup
Issued by NWS

Home | Current Version | Previous Version | Text Only | Print | Product List | Glossary On
Versions: 1 2 3 4 5 6 7 8 9 10 11 12 13 14 15 16 17 18 19 20 21 22 23 24 25 26 27 28 29 30 31 32 33 34 35 36 37 38 39 40 41 42 43 44 45 46 47 48 49 50
000
ASCA44 KEWX 270220
RWRMX

LATIN AMERICA AND CARIBBEAN REGIONAL WEATHER ROUNDUP
NATIONAL WEATHER SERVICE AUSTIN/SAN ANTONIO TX
900 PM CDT WED APR 26 2017

NOTE: "FAIR" INDICATED FEW OR NO CLOUDS BELOW 12,000 FEET WITH NO
SIGNIFICANT WEATHER AND/OR OBSTRUCTIONS TO VISIBILITY.

BAJA CALIFORNIA

CITY           SKY/WX    TMP DP  RH WIND       PRES   REMARKS
LORETO           N/A    N/A N/A N/A MISG        N/A
LA PAZ         CLEAR     77  48  36 SW9       29.82R
MEXICALI       MOCLDY    84  37  18 S10       29.67F
S.J. DEL CABO  CLEAR     73  64  73 SE7       29.82R
TIJUANA        PTCLDY    66  50  55 W3        29.90S

NORTHWESTERN MEXICO

CITY           SKY/WX    TMP DP  RH WIND       PRES   REMARKS
CULIACAN       CLEAR     81  63  54 S7        29.77R
DURANGO        PTCLDY    73  19  13 SW18      29.93R
GUAYMAS        CLEAR     77  63  61 S12       29.72R
HERMOSILLO     PTCLDY    84  50  30 SW14      29.79R
CD. JUAREZ     PTCLDY    77  28  16 W14       29.70S
LOS MOCHIS     CLEAR     77  61  57 NW9       29.79R
OBREGON        PTCLDY    79  57  47 S5        29.75R

NORTHEASTERN MEXICO

CITY           SKY/WX    TMP DP  RH WIND       PRES   REMARKS
CHIHUAHUA      CLEAR     75  34  22 N5        29.82R
MATAMOROS        N/A    N/A N/A N/A MISG        N/A
MONCLOVA         N/A    N/A N/A N/A MISG        N/A
MONTERREY      PTCLDY    86  37  17 E9        29.65R
NUEVO LAREDO   CLEAR     88  43  20 N14       29.63R
PIEDRAS NEGRAS   N/A    N/A N/A N/A MISG        N/A
REYNOSA        PTCLDY    86  46  25 E6        29.59R
SALTILLO       PTCLDY    79  50  36 CALM      29.92R
TORREON        CLEAR     86  25  10 CALM      29.79R
CD. VICTORIA     N/A    N/A N/A N/A MISG        N/A

WESTERN MEXICO

CITY           SKY/WX    TMP DP  RH WIND       PRES   REMARKS
AGUASCALIENTES MOCLDY    73   1   6 SW7       30.04R
COLIMA         PTCLDY    72  64  78 CALM      29.92R
DEL BAJIO      MOCLDY    75   9   7 W8        30.09R
GUADALAJARA    PTCLDY    75  19  12 W12       30.00R
MANZANILLO       N/A    N/A N/A N/A MISG        N/A
MAZATLAN       CLEAR     75  68  78 SW3       29.79R
P. VALLARTA      N/A    N/A N/A N/A MISG        N/A
URUAPAN          N/A    N/A N/A N/A MISG        N/A
ZACATECAS      PTCLDY    70  14  11 SW12      30.09R

CENTRAL MEXICO

CITY           SKY/WX    TMP DP  RH WIND       PRES   REMARKS
CUERNAVACA       N/A    N/A N/A N/A MISG        N/A
MEXICO CITY    CLEAR     75  28  17 SE9       30.14R
MORELIA        PTCLDY    73  39  29 SW7       30.06R
POZA RICA      PTCLDY    84  72  65 E5        29.62R
PUEBLA         CLEAR     64  30  27 S13       30.13R
QUERETARO      MOCLDY    72   9   8 W8        30.09R
S. LUIS POTOSI PTCLDY    79  -2   4 CALM      29.98R
TAMPICO        MOCLDY    84  66  54 SE12      29.58R
TOLUCA         CLEAR     64  32  29 W8        30.25R

SOUTHERN MEXICO

CITY           SKY/WX    TMP DP  RH WIND       PRES   REMARKS
ACAPULCO       CLEAR     79  73  83 W8        29.78R
B. DE HUATULCO CLEAR     86  68  54 W12       29.81
OAXACA         PTCLDY    75  50  41 SE8       30.01R
P. ESCONDIDO     N/A    N/A N/A N/A MISG        N/A
VERACRUZ       CLEAR     90  70  51 S9        29.60R HX  95
ZIHUATANEJO    PTCLDY    81  68  65 CALM      29.81R

YUCATAN PENINSULA

CITY           SKY/WX    TMP DP  RH WIND       PRES   REMARKS
CAMPECHE       CLEAR     86  79  79 N12G23    29.62R HX  99
CANCUN         PTCLDY    81  77  89 SE14      29.79R
CHETUMAL       MOCLDY    82  77  83 SE12      29.71R HX  91
CD. DEL CARMEN MOCLDY    88  75  66 N7        29.60R HX  97
COZUMEL        PTCLDY    81  75  83 SE12      29.76R
MERIDA         MOCLDY    93  70  46 E17       29.66R HX  99
MINATITLAN       N/A    N/A N/A N/A MISG        N/A
TAPACHULA      PTCLDY    82  72  69 CALM      29.80R
TUX. GUTIERREZ CLEAR     82  54  36 S6G17     29.79R
VILLAHERMOSA   PTCLDY    86  72  62 CALM      29.62R HX  92

CENTRAL AMERICA

CITY           SKY/WX    TMP DP  RH WIND       PRES   REMARKS
MANAGUA        PTCLDY    88  75  66 CALM      29.77R HX  97

CARIBBEAN

CITY           SKY/WX    TMP DP  RH WIND       PRES   REMARKS
ARUBA          PTCLDY    82  75  78 E17       29.86R
CURACAO        PTCLDY    81  73  78 E15       29.89R
KINGSTON       PTCLDY    82  73  74 SE17      29.89R
NASSAU         PTCLDY    81  70  69 E5        29.95R
SAN JUAN       PTCLDY    81  75  83 E9        30.00S
SANTO DOMINGO  PTCLDY    77  73  88 NE5       29.94S
ST. CROIX      CLEAR     77  72  83 NE8       30.01
ST. MAARTEN    PTCLDY    79  72  78 E9        30.00S
ST. THOMAS     CLEAR     77  73  88 E8        30.01

$$





USA.gov is the U.S. government's official web portal to all federal, state and local government web resources and services.